Location: ??????????
(48.5701°N, 37.7703°E)
Time: 22:44:18
(UTC+00:00)

Cosmos 1954 Rocket - Pass Details

Date: 14 July 2020
Orbit: 751 x 782 km, 74.0° (Epoch: 10 August)

Event Time Altitude Azimuth Distance (km) Brightness Sun altitude
Exits shadow 00:28:04 13° 221° (SW) 2,123 5.6 -9.9°
Maximum altitude 00:32:43 55° 298° (WNW) 937 4.4 -9.4°
Drops below altitude 10° 00:37:56 10° 16° (NNE) 2,343 7.7 -8.8°
Sets 00:40:24 0° 21° (NNE) 3,278 8.7 -8.5°
